Visibility
15.0 15.0 15.0 15.0 15.0 15.0 15.0 15.0 15.0 15.0 15.0 15.0 15.0 15.0 0.3 0.2 8.6 15.0 15.0 14.2 15.0 7.4 6.4 4.3 1.9 2.5 6.8 15.0 14.1 15.0 15.0 15.0 15.0 15.0 15.0 15.0 15.0 15.0 15.0 15.0 15.0 15.0 15.0
15.0 15.0 15.0 15.0 15.0 15.0 15.0 15.0 15.0 15.0 15.0 15.0 15.0 15.0 15.0 15.0 14.5 14.7 1.5 11.0 11.4 5.5 10.7 2.8 3.0 2.5 3.5 3.7 5.9 6.2 7.3 12.6 7.5 10.4 15.0 15.0 15.0 15.0 15.0 15.0 15.0 15.0 15.0
15.0 15.0 15.0 15.0 15.0 15.0 15.0 15.0 15.0 15.0 15.0 15.0 15.0 15.0 15.0 11.6 14.7 9.6 13.3 7.6 5.8 14.9 7.8 3.9 3.6 3.7 3.6 3.3 4.5 3.5 4.2 7.6 6.7 13.8 14.3 15.0 15.0 15.0 15.0 15.0 15.0 15.0 15.0
15.0 15.0 15.0 15.0 15.0 15.0 15.0 15.0 15.0 15.0 15.0 15.0 10.4 15.0 12.8 7.0 4.9 5.1 7.1 5.2 3.8 6.2 5.5 7.1 7.9 5.1 4.9 11.0 8.1 5.3 6.1 11.2 15.0 11.6 15.0 9.7 12.5 8.0 15.0 15.0 15.0 15.0 15.0
15.0 15.0 15.0 15.0 15.0 15.0 15.0 15.0 15.0 15.0 8.5 15.0 12.2 15.0 14.8 8.4 5.3 4.6 6.1 5.5 3.9 2.2 3.3 5.8 8.6 7.3 7.1 5.4 4.4 6.3 10.5 4.4 1.3 0.1 0.1 0.2 0.6 2.6 4.2 14.5 15.0 15.0 15.0
15.0 15.0 15.0 15.0 15.0 15.0 15.0 15.0 15.0 15.0 15.0 15.0 0.4 0.4 0.2 3.3 5.2 4.8 5.6 1.5 4.6 1.5 0.1 0.2 0.8 4.1 4.5 5.0 7.6 8.7 6.2 0.1 0.1 0.3 3.5 6.1 15.0 15.0 15.0 15.0 15.0 15.0 15.0
15.0 15.0 15.0 15.0 15.0 15.0 15.0 15.0 15.0 15.0 15.0 4.7 0.6 0.7 0.2 8.8 2.5 5.6 8.7 5.3 0.6 0.4 0.2 0.1 0.1 0.2 0.3 0.2 0.3 0.1 0.0 0.1 4.1 13.6 15.0 15.0 15.0 15.0 15.0 15.0 15.0 15.0 15.0
15.0 15.0 15.0 15.0 15.0 15.0 15.0 15.0 15.0 15.0 15.0 15.0 0.1 0.2 0.2 0.2 0.6 2.4 6.6 3.0 0.2 0.3 1.1 0.4 0.1 0.0 0.0 0.1 0.1 0.1 1.0 9.7 14.0 0.4 15.0 15.0 15.0 15.0 15.0 15.0 15.0 15.0 15.0
15.0 15.0 15.0 15.0 15.0 15.0 15.0 15.0 15.0 15.0 15.0 1.2 0.1 0.0 0.0 0.0 0.4 0.8 1.3 0.3 0.2 0.2 13.6 15.0 13.9 12.3 15.0 15.0 15.0 15.0 15.0 15.0 15.0 15.0 15.0 15.0 15.0 15.0 15.0 15.0 15.0 15.0 15.0
15.0 15.0 15.0 15.0 15.0 15.0 6.3 1.3 0.7 15.0 4.7 0.1 0.0 0.0 0.1 0.0 2.0 12.9 6.9 5.1 0.3 0.5 6.6 0.2 14.3 15.0 15.0 15.0 15.0 15.0 15.0 15.0 15.0 15.0 15.0 15.0 15.0 15.0 15.0 15.0 15.0 15.0 15.0
15.0 15.0 9.7 0.4 0.6 2.5 9.7 0.3 0.3 0.0 0.0 0.0 0.0 0.0 0.1 0.1 0.2 15.0 15.0 9.3 1.1 0.2 2.0 0.9 5.6 15.0 15.0 15.0 15.0 15.0 15.0 15.0 15.0 15.0 15.0 15.0 15.0 15.0 15.0 15.0 15.0 15.0 15.0
15.0 0.1 0.0 0.0 0.2 7.4 1.7 0.0 0.0 0.0 0.0 0.0 0.0 0.0 0.0 0.0 0.9 7.7 15.0 14.1 6.5 6.4 0.2 1.4 5.4 15.0 15.0 15.0 15.0 15.0 15.0 15.0 15.0 15.0 15.0 15.0 15.0 15.0 15.0 15.0 15.0 15.0 15.0
0.0 0.0 0.0 0.2 0.1 0.2 0.0 0.0 0.0 0.0 0.0 0.0 0.1 0.0 0.0 0.1 0.1 0.2 0.1 2.4 0.0 0.1 0.3 15.0 15.0 15.0 15.0 15.0 15.0 15.0 15.0 15.0 15.0 15.0 15.0 15.0 15.0 15.0 15.0 15.0 15.0 15.0 15.0
0.0 0.1 0.0 0.0 0.0 0.1 0.1 0.1 0.6 0.0 0.0 0.0 0.1 0.0 0.0 0.1 0.0 0.0 0.1 0.0 0.1 0.1 0.1 0.1 0.2 1.5 15.0 15.0 13.4 15.0 15.0 15.0 15.0 15.0 15.0 15.0 15.0 15.0 15.0 15.0 15.0 15.0 15.0
0.1 0.0 0.0 0.0 0.0 0.0 0.0 0.0 0.0 0.0 0.1 0.1 0.1 0.3 0.1 0.1 0.2 5.0 0.8 0.1 0.9 0.3 0.1 0.1 0.2 0.4 15.0 15.0 15.0 15.0 15.0 15.0 15.0 15.0 15.0 15.0 15.0 15.0 15.0 15.0 15.0 15.0 15.0
0.1 0.0 0.1 0.1 0.0 0.0 0.0 0.1 0.1 0.1 0.0 0.1 4.6 0.6 0.1 0.3 0.0 0.0 0.1 0.1 0.1 0.2 3.2 0.2 0.1 2.7 15.0 15.0 15.0 15.0 15.0 15.0 15.0 15.0 15.0 15.0 15.0 15.0 15.0 15.0 15.0 15.0 11.1
0.1 0.2 0.2 0.3 0.1 0.1 0.1 0.1 0.3 0.1 0.0 0.0 0.0 0.0 0.0 0.1 0.1 0.1 0.1 0.1 0.1 1.2 5.4 0.4 0.7 0.6 15.0 15.0 15.0 15.0 15.0 15.0 15.0 15.0 15.0 15.0 15.0 15.0 15.0 15.0 15.0 12.1 9.0
0.1 15.0 7.5 10.2 0.6 0.2 0.1 0.1 0.4 0.3 0.1 0.1 0.1 0.1 0.0 0.0 0.1 0.1 0.1 0.1 0.1 0.1 0.5 0.5 0.2 1.1 15.0 15.0 15.0 15.0 15.0 15.0 15.0 15.0 15.0 15.0 15.0 15.0 14.1 12.4 8.6 3.4 7.6
1.8 14.0 5.8 0.4 2.0 0.2 0.1 0.1 0.1 0.1 0.1 0.2 0.1 0.1 0.1 0.1 0.1 0.1 0.2 0.6 0.4 0.3 0.1 0.1 0.2 2.2 15.0 15.0 15.0 15.0 15.0 15.0 15.0 15.0 15.0 15.0 15.0 12.2 13.0 11.6 7.6 9.9 8.7
11.8 10.0 13.5 14.8 2.3 0.2 0.6 0.2 0.1 0.2 0.2 0.2 0.1 0.1 0.1 0.1 0.1 0.1 0.1 0.1 0.1 0.1 0.1 0.7 14.0 15.0 15.0 15.0 15.0 15.0 15.0 15.0 11.6 10.6 14.5 15.0 15.0 15.0 5.0 3.5 7.4 10.5 15.0
7.4 9.4 14.6 15.0 1.9 0.7 3.6 0.2 0.1 0.1 0.1 0.1 0.1 0.1 0.2 0.5 0.2 0.1 0.1 0.1 0.3 11.4 15.0 15.0 15.0 15.0 15.0 15.0 15.0 15.0 15.0 15.0 15.0 15.0 15.0 14.9 1.7 1.0 10.4 15.0 14.9 15.0 15.0
0.2 1.2 12.1 12.9 15.0 2.5 2.3 0.4 0.2 0.5 0.2 0.2 0.1 0.1 0.3 0.2 0.2 0.4 1.2 15.0 15.0 15.0 15.0 15.0 15.0 15.0 15.0 15.0 15.0 15.0 15.0 14.3 14.7 14.7 5.4 3.4 7.4 14.7 14.9 14.5 12.2 15.0 15.0
0.3 0.5 3.1 3.1 8.6 1.4 1.1 2.5 0.2 0.2 0.4 0.3 0.7 2.7 1.2 7.4 15.0 15.0 14.8 15.0 15.0 15.0 15.0 15.0 15.0 15.0 15.0 15.0 15.0 15.0 15.0 15.0 15.0 15.0 13.8 12.3 13.6 15.0 12.2 15.0 15.0 15.0 15.0
0.3 0.5 0.6 0.6 0.6 0.9 0.6 0.6 0.2 0.2 0.4 6.9 6.9 6.2 6.1 15.0 14.0 14.9 15.0 15.0 15.0 15.0 15.0 15.0 15.0 15.0 15.0 15.0 15.0 15.0 15.0 15.0 15.0 15.0 15.0 15.0 15.0 15.0 15.0 15.0 15.0 15.0 15.0
0.1 0.3 0.5 0.7 0.9 0.4 0.3 0.4 0.2 0.2 1.6 2.5 2.0 2.4 2.5 10.3 15.0 15.0 15.0 15.0 15.0 15.0 15.0 15.0 15.0 15.0 15.0 12.1 6.2 14.5 15.0 15.0 15.0 15.0 15.0 15.0 15.0 15.0 15.0 15.0 14.8 15.0 15.0
0.1 0.1 0.3 0.5 0.4 0.3 0.3 0.4 0.3 0.8 2.8 1.9 1.6 1.8 6.8 15.0 15.0 15.0 15.0 15.0 15.0 15.0 15.0 15.0 15.0 15.0 7.9 3.8 13.8 15.0 15.0 15.0 15.0 15.0 15.0 15.0 15.0 10.6 11.5 12.6 14.5 15.0 15.0